, AK

(GMT )
Portage Glacier

Weather History for PATO - May, 2013

Change the Weather History Date:

Saturday, May 18, 2013

  Actual Average Record
Temperature  
Mean Temperature 30 °F -  
Max Temperature 33 °F - - ()
Min Temperature 28 °F - - ()
Degree Days  
Heating Degree Days 34    
Moisture  
Dew Point 29 °F    
Average Humidity 95    
Maximum Humidity 100    
Minimum Humidity 85    
Precipitation  
Precipitation 0.18 in - - ()
Sea Level Pressure  
Sea Level Pressure 29.73 in    
Wind  
Wind Speed 11 mph (West)    
Max Wind Speed 15 mph    
Max Gust Speed 25 mph    
Visibility 3 miles    
Events Fog , Snow    
Averages and records for this station are not official NWS values.
T = Trace of Precipitation, MM = Missing Value Source: NWS Daily Summary

Daily Weather History Graph

Daily Weather History Graph

Search for Another Location

Airport or City:

Astronomy

May. 18, 2013 Rise Set
Actual Time 5:03 AM AKDT 10:41 PM AKDT
Civil Twilight 3:51 AM AKDT 11:54 PM AKDT
Nautical Twilight 2:24 AM AKDT 1:19 AM AKDT
Astronomical Twilight Sun does not set Sun does not set
Moon 2:02 PM AKDT (5/18) 2:59 AM AKDT (5/18)
Length of Visible Light 20h 03m
Length of Day
17h 38m
First Quarter, 56% of the Moon is Illuminated
May 18
First Quarter
May 24
Full
May 31
Last Quarter
Jun 8
New
Jun 16
First Quarter

Hourly Weather History & Observations

Time (AKDT) Temp. Windchill Dew Point Humidity Pressure Visibility Wind Dir Wind Speed Gust Speed Precip Events Conditions
12:53 AM 32.0 °F 23.0 °F 32.0 °F 100% 29.51 in 1.8 mi West 11.5 mph - 0.05 in Snow Light Snow
1:20 AM 32.0 °F 23.0 °F 32.0 °F 100% 29.51 in 2.5 mi West 11.5 mph - 0.01 in Snow Light Snow
1:28 AM 32.0 °F 25.6 °F 32.0 °F 100% 29.51 in 3.0 mi West 6.9 mph 18.4 mph 0.01 in Snow Light Snow
1:45 AM 32.0 °F 23.0 °F 32.0 °F 100% 29.52 in 2.5 mi West 11.5 mph 17.3 mph 0.01 in Snow Light Snow
1:53 AM 32.0 °F 23.0 °F 30.9 °F 96% 29.52 in 2.0 mi West 11.5 mph - 0.01 in Snow Light Snow
2:04 AM 32.0 °F 23.6 °F 30.9 °F 96% 29.52 in 2.5 mi West 10.4 mph 19.6 mph 0.00 in Snow Light Snow
2:22 AM 32.0 °F 22.5 °F 30.9 °F 96% 29.52 in 1.5 mi West 12.7 mph 20.7 mph 0.01 in Snow Light Snow
2:29 AM 32.0 °F 22.5 °F 30.9 °F 96% 29.53 in 1.2 mi West 12.7 mph 19.6 mph 0.01 in Snow Light Snow
2:53 AM 30.9 °F 21.2 °F 30.9 °F 100% 29.54 in 1.5 mi West 12.7 mph 18.4 mph 0.02 in Snow Light Snow
3:28 AM 30.9 °F 21.7 °F 30.9 °F 100% 29.54 in 2.5 mi West 11.5 mph - 0.01 in Snow Light Snow
3:39 AM 30.9 °F 21.2 °F 30.9 °F 100% 29.54 in 1.2 mi West 12.7 mph 21.9 mph 0.02 in Snow Light Snow
3:49 AM 30.2 °F 20.2 °F 30.2 °F 100% 29.55 in 2.0 mi West 12.7 mph 24.2 mph 0.02 in Snow Light Snow
3:53 AM 30.9 °F 21.2 °F 30.9 °F 100% 29.55 in 2.5 mi West 12.7 mph 18.4 mph 0.02 in Snow Light Snow
4:05 AM 30.9 °F 22.2 °F 30.9 °F 100% 29.55 in 1.8 mi West 10.4 mph 21.9 mph 0.00 in Snow Light Snow
4:15 AM 30.9 °F 21.2 °F 30.9 °F 100% 29.55 in 2.0 mi West 12.7 mph 20.7 mph 0.00 in Snow Light Snow
4:23 AM 30.9 °F 20.7 °F 30.9 °F 100% 29.56 in 1.5 mi West 13.8 mph 20.7 mph 0.00 in Snow Light Snow
4:53 AM 30.9 °F 21.7 °F 30.0 °F 96% 29.57 in 1.8 mi West 11.5 mph 20.7 mph 0.00 in Snow Light Snow
5:00 AM 30.9 °F 22.2 °F 30.0 °F 96% 29.57 in 2.0 mi West 10.4 mph 20.7 mph 0.00 in Snow Light Snow
5:04 AM 30.9 °F 20.7 °F 30.0 °F 96% 29.57 in 1.8 mi West 13.8 mph 20.7 mph 0.01 in Snow Light Snow
5:34 AM 30.0 °F 19.1 °F 30.0 °F 100% 29.58 in 0.8 mi West 15.0 mph 20.7 mph 0.02 in Snow Light Snow
5:45 AM 30.0 °F 20.5 °F 30.0 °F 100% 29.59 in 1.2 mi West 11.5 mph - 0.02 in Snow Light Snow
5:53 AM 30.0 °F 20.0 °F 30.0 °F 100% 29.59 in 1.2 mi West 12.7 mph 23.0 mph 0.02 in Snow Light Snow
5:57 AM 30.0 °F 19.5 °F 30.0 °F 100% 29.59 in 0.8 mi West 13.8 mph 23.0 mph 0.00 in Snow Light Snow
6:18 AM 30.0 °F 20.0 °F 30.0 °F 100% 29.60 in 0.5 mi West 12.7 mph 21.9 mph 0.01 in Fog , Snow Snow
6:31 AM 30.0 °F 19.5 °F 28.9 °F 96% 29.61 in 1.0 mi West 13.8 mph 21.9 mph 0.01 in Snow Light Snow
6:53 AM 30.0 °F 20.5 °F 28.9 °F 96% 29.62 in 1.5 mi West 11.5 mph 23.0 mph 0.01 in Snow Light Snow
7:19 AM 28.9 °F 18.6 °F 28.0 °F 96% 29.62 in 0.8 mi West 12.7 mph 23.0 mph 0.00 in Snow Light Snow
7:28 AM 28.9 °F 18.6 °F 28.0 °F 96% 29.63 in 1.0 mi West 12.7 mph 23.0 mph 0.01 in Snow Light Snow
7:53 AM 28.9 °F 19.2 °F 27.0 °F 92% 29.64 in 2.5 mi West 11.5 mph 23.0 mph 0.01 in Snow Light Snow
8:14 AM 28.9 °F 18.2 °F 27.0 °F 92% 29.65 in 1.0 mi West 13.8 mph 21.9 mph 0.00 in Snow Light Snow
8:23 AM 28.0 °F 17.0 °F 27.0 °F 96% 29.65 in 0.5 mi WSW 13.8 mph 25.3 mph 0.00 in Fog , Snow Snow
8:39 AM 28.0 °F 18.1 °F 27.0 °F 96% 29.66 in 1.8 mi West 11.5 mph 21.9 mph 0.00 in Snow Light Snow
8:46 AM 28.0 °F 18.1 °F 26.1 °F 92% 29.66 in 2.5 mi West 11.5 mph 25.3 mph 0.00 in Snow Light Snow
8:53 AM 28.0 °F 17.5 °F 26.1 °F 92% 29.67 in 2.5 mi WSW 12.7 mph 23.0 mph 0.00 in Snow Light Snow
9:03 AM 28.0 °F 18.1 °F 26.1 °F 92% 29.67 in 5.0 mi West 11.5 mph 23.0 mph 0.00 in Snow Light Snow
9:16 AM 28.9 °F 19.2 °F 26.1 °F 89% 29.68 in 1.8 mi West 11.5 mph 20.7 mph 0.00 in Snow Light Snow
9:28 AM 28.9 °F 18.6 °F 27.0 °F 92% 29.69 in 2.5 mi WSW 12.7 mph 20.7 mph 0.00 in Snow Light Snow
9:36 AM 28.9 °F 18.2 °F 27.0 °F 92% 29.69 in 4.0 mi West 13.8 mph 24.2 mph 0.00 in Snow Light Snow
9:53 AM 28.9 °F 18.6 °F 27.0 °F 92% 29.70 in 7.0 mi West 12.7 mph - 0.00 in   Overcast
10:45 AM 28.9 °F 21.1 °F 27.0 °F 92% 29.73 in 1.8 mi West 8.1 mph 21.9 mph 0.00 in Snow Light Snow
10:53 AM 28.9 °F 18.2 °F 27.0 °F 92% 29.74 in 1.0 mi West 13.8 mph 23.0 mph 0.00 in Snow Light Snow
11:53 AM 28.9 °F 19.8 °F 27.0 °F 92% 29.77 in 1.8 mi West 10.4 mph 21.9 mph 0.00 in Snow Light Snow
12:09 PM 28.9 °F 18.6 °F 27.0 °F 92% 29.77 in 2.5 mi West 12.7 mph 20.7 mph 0.00 in Snow Light Snow
12:48 PM 30.2 °F 19.8 °F 28.4 °F 93% 29.79 in 1.5 mi West 13.8 mph 20.7 mph 0.00 in Snow Light Snow
12:53 PM 30.0 °F 21.1 °F 28.0 °F 92% 29.80 in 1.2 mi West 10.4 mph 20.7 mph 0.00 in Snow Light Snow
1:40 PM 30.9 °F 21.7 °F 28.0 °F 89% 29.82 in 3.0 mi West 11.5 mph 18.4 mph 0.00 in Snow Light Snow
1:53 PM 30.9 °F 20.2 °F 28.0 °F 89% 29.83 in 8.0 mi West 15.0 mph 20.7 mph 0.00 in Snow Light Snow
2:05 PM 30.9 °F 20.7 °F 28.0 °F 89% 29.83 in 4.0 mi WNW 13.8 mph 21.9 mph 0.00 in Snow Light Snow
2:53 PM 32.0 °F 24.8 °F 28.0 °F 85% 29.86 in 2.0 mi WNW 8.1 mph 18.4 mph 0.00 in Snow Light Snow
2:57 PM 32.0 °F 24.8 °F 28.9 °F 88% 29.87 in 0.8 mi WNW 8.1 mph 18.4 mph 0.00 in Snow Light Snow
3:03 PM 30.9 °F 22.2 °F 28.9 °F 92% 29.87 in 0.2 mi WNW 10.4 mph 19.6 mph 0.01 in Fog , Snow Snow
3:17 PM 30.9 °F 22.8 °F 28.9 °F 92% 29.88 in 0.5 mi West 9.2 mph 20.7 mph 0.01 in Fog , Snow Snow
3:35 PM 30.9 °F 23.5 °F 28.9 °F 92% 29.89 in 1.0 mi West 8.1 mph - 0.01 in Snow Light Snow
3:53 PM 30.9 °F 22.2 °F 28.9 °F 92% 29.91 in 0.8 mi WNW 10.4 mph - 0.02 in Snow Light Snow
4:06 PM 32.0 °F 24.8 °F 30.0 °F 92% 29.91 in 0.8 mi West 8.1 mph - 0.00 in Snow Light Snow
4:13 PM 32.0 °F 24.2 °F 28.9 °F 88% 29.91 in 1.0 mi West 9.2 mph - 0.00 in Snow Light Snow
4:22 PM 32.0 °F 24.2 °F 30.0 °F 92% 29.92 in 1.2 mi West 9.2 mph - 0.00 in Snow Light Snow
4:53 PM 30.9 °F 23.5 °F 30.0 °F 96% 29.95 in 0.8 mi West 8.1 mph - 0.01 in Snow Light Snow
4:57 PM 30.9 °F 24.3 °F 30.0 °F 96% 29.95 in 0.5 mi West 6.9 mph - 0.00 in Fog , Snow Snow
5:23 PM 32.0 °F 26.4 °F 30.9 °F 96% 29.96 in 1.0 mi West 5.8 mph - 0.01 in Snow Light Snow
5:49 PM 33.8 °F 27.7 °F 30.2 °F 87% 29.97 in 2.0 mi West 6.9 mph - 0.01 in Snow Light Snow
5:53 PM 32.0 °F 26.4 °F 30.9 °F 96% 29.98 in 2.0 mi Variable 5.8 mph - 0.01 in Snow Light Snow
6:12 PM 33.1 °F 27.7 °F 30.0 °F 89% 29.98 in 3.0 mi West 5.8 mph - 0.00 in Snow Light Snow
6:53 PM 33.1 °F 27.7 °F 30.9 °F 92% 30.00 in 7.0 mi WNW 5.8 mph - 0.00 in Snow Light Snow
7:53 PM 33.1 °F 28.7 °F 30.0 °F 89% 30.03 in 10.0 mi NW 4.6 mph - 0.00 in   Overcast
8:53 PM 33.1 °F 27.7 °F 30.9 °F 92% 30.06 in 10.0 mi WNW 5.8 mph - N/A   Overcast
9:53 PM 32.0 °F 25.6 °F 30.9 °F 96% 30.09 in 10.0 mi West 6.9 mph - N/A   Overcast
10:53 PM 32.0 °F 25.6 °F 30.9 °F 96% 30.13 in 10.0 mi West 6.9 mph - N/A   Overcast
11:53 PM 32.0 °F 26.4 °F 30.0 °F 92% 30.15 in 10.0 mi West 5.8 mph - N/A   Overcast